Location: Krakow
(50.0830°N, 19.9170°E)
Time: 21:32:02
(UTC+01:00)

Altair - Pass Details

Date: 05 December 2023
Orbit: 1501 x 1682 km, 47.2° (Epoch: 03 March)

Event Time Altitude Azimuth Distance (km) Brightness Sun altitude
Rises 10:10:59 0° 258° (WSW) 4,788 10.0 15.4°
Reaches altitude 10° 10:14:07 10° 257° (WSW) 3,779 9.6 15.6°
Maximum altitude 10:23:37 75° 174° (S) 1,585 8.2 16.0°
Drops below altitude 10° 10:32:49 10° 92° (E) 3,667 9.8 16.4°
Sets 10:35:49 0° 91° (E) 4,640 10.2 16.5°
